Location: Unspecified
(52.4292°N, 19.3359°E)
Time: 23:31:26
(UTC+02:00)

SR - Pass Details

Date: 05 June 2024
Orbit: 580 x 858 km, 66.7° (Epoch: 12 June)

Event Time Altitude Azimuth Distance (km) Brightness Sun altitude
Rises 15:26:41 0° 212° (SSW) 3,165 ? 46.7°
Reaches altitude 10° 15:29:08 10° 211° (SSW) 2,200 ? 46.3°
Maximum altitude 15:34:06 76° 127° (SE) 702 ? 45.7°
Drops below altitude 10° 15:38:43 10° 42° (NE) 2,040 ? 45.0°
Sets 15:40:55 0° 41° (NE) 2,916 ? 44.7°
